RESURS-DK 1 (29228 NORAD) Tracking and Keplerian Element Data

This shows tracking and keplerian element data for the satellite.

Feedback or suggestion? Click here.




ElementValue
Catalog29228
NameRESURS-DK 1
Epoch Orbit69064
Epoch Day352.82561538
Epoch Year2018
RAAN139.4055
Inclination69.9347
Eccentricity0.0007134
Argument of Perigee239.4361
Mean Anonmoly120.6096
Mean Motion15.02387441
Decay Rate4.7E-07
L11 29228U 06021A 18352.82561538 .00000047 00000-0 10978-4 0 9999
L22 29228 69.9347 139.4055 0007134 239.4361 120.6096 15.02387441690647

Live tracking and technical data element details for RESURS-DK 1 (NORAD 29228). RESURS-DK 1 can be tracked NOW for your location showing map with azimuth and elevation plus other details from your city location.

Track the satellite on the map from your city or location and see movement details for azimuth, elevation, latitude, longitude, range, height, and movement on the map or in text.







IsCatalogInMostPopularTable: catalog: 29228, numindb: 69
Update: records affected: 1



GetName: 29228 RESURS-DK 1

Hit Count: updated at: Wed, 19 Dec 2018 15:39:09 GMT